Weather in Yuldybayevo

Russia / Republic of Bashkortostan     52°20′32″N   57°52′28″E
temp.,
°C
wind,
m/s
gust,
m/s
humid.,
%
clouds,
%
prec.,
mm/h
press.,
hPa
HPBL,
m
9 december, thu
thu923:00−17e1199100 0.0 104213
02:00−16ese1198100 0.0 104214
05:00−17ese1197100 0.0 104213
08:00−18e1195100 0.0 104113
11:00−14ese258395 0.0 1040112
14:00−10se398090 0.0 1038229
17:00−15e239278 0.0 103850
20:00−18e2396100 0.0 103852
10 december, fri
fri1023:00−17e2492100 0.0 103765
02:00−14ese2487100 0.0 103483
05:00−12e2586100 0.0 103298
08:00−11e2487100 0.0 1031102
11:00−9e2786100 0.0 1029179
14:00−7ese2682100 0.0 1028193
17:00−10ene2392100 0.0 102843
20:00−9ene279183 0.0 1027148
11 december, sat
sat1123:00−9ene3889100 0.0 1027166
02:00−9ene3108698 0.0 1026171
05:00−11ene41483100 0.0 1026231
08:00−9ne71780100 0.0 1026412
11:00−8ene81891100 0.0 1028544
14:00−8ene91989100 0.0 1028526
17:00−10ne81981100 0.0 1030526
20:00−10ne8207484 0.0 1032511
12 december, sun
sun1223:00−11ne820760 0.0 1034483
02:00−12ne718814 0.0 1036405
05:00−13ne516835 0.0 1038342
08:00−14ne4148757 0.0 1040266
11:00−12ne413885 0.0 1041320
14:00−9ne410835 0.0 1041320
17:00−14n22925 0.0 104310
20:00−16nnw22925 0.0 104511
13 december, mon
mon1323:00−16nw22862 0.0 104410
02:00−14nw22822 0.0 10449
05:00−13nw227953 0.0 10449
08:00−13nw22805 0.0 104310
11:00−8nnw22751 0.0 104231
14:00−1nnw11765 0.0 104042
17:00−8wnw11865 0.0 104210
20:00−12nw22844 0.0 104310